{"data":{"norad_id":63899,"epoch":"2026-05-25T04:09:18.569376Z","epoch_age_seconds":53381,"freshness":"FRESH","line1":"1 63899U 25095K   26145.17313159  .00013146  00000+0  48618-3 0  9998","line2":"2 63899  43.0007 104.3954 0000767 258.3706 101.7060 15.27593857 59481","mean_motion":15.27593857,"eccentricity":7.67e-5,"inclination_deg":43.0007,"raan_deg":104.3954,"arg_perigee_deg":258.3706,"mean_anomaly_deg":101.706,"bstar":0.00048618,"rev_number":5948,"period_min":94.265893607871,"perigee_km":482.48135371919,"apogee_km":483.53385330137,"semimajor_km":6861.1446035103,"source":"CELESTRAK","updated_at":"2026-05-25T13:38:20.176734Z"}}